This is the latest recevied weather packets stored in our database for station/object LX1CU-13. If no packets are shown the sender has not sent any weather packets the latest 10 day(s).
| Time | Temp. | Humidity | Pressure | Rain* | Wind** | Luminosity | Snow |
|---|---|---|---|---|---|---|---|
| 1777493929 | 12.78° C | 41% | 1019.1 hPa | 0 mm | - | - | - |
| 1777493628 | 12.78° C | 41% | 1019.1 hPa | 0 mm | - | - | - |
| 1777493328 | 12.78° C | 41% | 1019.2 hPa | 0 mm | - | - | - |
| 1777493029 | 12.78° C | 41% | 1019.1 hPa | 0 mm | - | - | - |
| 1777492729 | 12.78° C | 40% | 1018.9 hPa | 0 mm | - | - | - |
| 1777492429 | 12.78° C | 40% | 1018.9 hPa | 0 mm | - | - | - |
| 1777492129 | 12.78° C | 40% | 1018.8 hPa | 0 mm | - | - | - |
| 1777491829 | 12.78° C | 40% | 1018.8 hPa | 0 mm | - | - | - |
| 1777491529 | 12.78° C | 40% | 1018.7 hPa | 0 mm | - | - | - |
| 1777491229 | 13.33° C | 39% | 1018.6 hPa | 0 mm | - | - | - |
| 1777490929 | 13.33° C | 39% | 1018.7 hPa | 0 mm | - | - | - |
| 1777490629 | 13.33° C | 39% | 1018.4 hPa | 0 mm | - | - | - |
| 1777490329 | 13.89° C | 38% | 1018.5 hPa | 0 mm | - | - | - |
| 1777490029 | 13.89° C | 38% | 1018.5 hPa | 0 mm | - | - | - |
| 1777489729 | 13.89° C | 38% | 1018.5 hPa | 0 mm | - | - | - |
| 1777489429 | 14.44° C | 38% | 1018.4 hPa | 0 mm | - | - | - |
| 1777489129 | 14.44° C | 37% | 1018.2 hPa | 0 mm | - | - | - |
| 1777488829 | 14.44° C | 37% | 1018.1 hPa | 0 mm | - | - | - |
| 1777488529 | 15° C | 36% | 1018.2 hPa | 0 mm | - | - | - |
| 1777488229 | 15.56° C | 36% | 1018 hPa | 0 mm | - | - | - |
| 1777487929 | 15.56° C | 36% | 1018 hPa | 0 mm | - | - | - |
| 1777487629 | 16.67° C | 35% | 1018 hPa | 0 mm | - | - | - |
| 1777487329 | 16.67° C | 34% | 1017.9 hPa | 0 mm | - | - | - |
| 1777487029 | 17.78° C | 33% | 1017.9 hPa | 0 mm | - | - | - |
| 1777486729 | 18.89° C | 32% | 1017.8 hPa | 0 mm | - | - | - |
* Rain latest hour (hover to see other rain measurements)
** Current wind speed in m/s (hover to see current wind gust speed)